Flag for Cuba

Past Weather in Trinidad, Cuba — Yesterday and Last 2 Weeks

Now
88 °F

Partly sunny.


Feels Like: 96 °F
Forecast: 90 / 76 °F
Wind: 5 mph from Northeast

Location: Santa Bárbara
Current Time: Sep 21, 2020 at 1:11:54 pm
Latest Report: Sep 21, 2020 at 11:50 am
Visibility: 6 mi
Pressure29.95 "Hg
Humidity: 62%
Dew Point: 73 °F
Location of TrinidadLocation

Past Weather in Trinidad — Graph

°F

Trinidad Temperature Yesterday

Maximum temperature yesterday: 90 °F (at 12:50 pm)
Minimum temperature yesterday: 73 °F (at 4:50 am)
Average temperature yesterday: 80 °F

High & Low Weather Summary for the Past Weeks

 TemperatureHumidityPressure
High91 °F (Sep 7, 1:50 pm)100% (Sep 7, 6:50 am)30.04 "Hg (Sep 7, 6:50 am)
Low72 °F (Sep 7, 5:50 am)52% (Sep 13, 3:50 pm)29.80 "Hg (Sep 7, 3:29 pm)
Average80 °F85%29.92 "Hg
* Reported Sep 6 11:50 am — Sep 21 11:50 am, Trinidad. Weather by CustomWeather, © 2020

Note: Actual official high and low records may vary slightly from our data, if they occured in-between our weather recording intervals... More about our weather records

Trinidad Weather History for the Previous 24 Hours

Scroll right to see more
 ConditionsComfort  
Time TempWeatherWind HumidityBarometerVisibility
11:50 am
Mon, Sep 21
88 °FPartly sunny.5 mph62%29.95 "Hg6 mi
10:50 am84 °FPartly sunny.2 mph74%29.95 "Hg6 mi
9:50 am84 °FScattered clouds.2 mph79%29.95 "Hg6 mi
8:50 am81 °FPassing clouds.1 mph84%29.95 "Hg6 mi
7:50 am75 °FPassing clouds.2 mph94%29.92 "Hg6 mi
6:50 am73 °FPassing clouds.2 mph100%29.92 "Hg6 mi
5:50 am75 °FPassing clouds.1 mph94%29.92 "Hg6 mi
4:50 am75 °FClear.1 mph94%29.92 "Hg6 mi
3:50 am75 °FClear.1 mph100%29.92 "Hg6 mi
2:50 am75 °FClear.1 mph100%29.92 "Hg6 mi
1:50 am75 °FPassing clouds.1 mph100%29.95 "Hg6 mi
12:50 am77 °FPassing clouds.2 mph94%29.95 "Hg6 mi
11:50 pm
Sun, Sep 20
77 °FPassing clouds.2 mph94%29.95 "Hg6 mi
10:50 pm77 °FPassing clouds.5 mph100%29.95 "Hg6 mi
7:50 pm79 °FPassing clouds.2 mph89%29.92 "Hg6 mi
6:50 pm81 °FPartly sunny.5 mph84%29.89 "Hg6 mi
5:50 pm82 °FPartly sunny.6 mph79%29.89 "Hg6 mi
4:50 pm90 °FPartly sunny.10 mph59%29.89 "Hg6 mi
3:50 pm90 °FPartly sunny.9 mph63%29.86 "Hg6 mi
2:50 pm90 °FPartly sunny.8 mph67%29.89 "Hg6 mi
1:50 pm90 °FPartly sunny.5 mph63%29.89 "Hg6 mi
Weather by CustomWeather, © 2020

See weather overview